Location: Kra?nica
(53.4833°N, 14.6167°E)
Time: 21:57:00
(UTC+00:00)

Cosmos 1954 Rocket - Pass Details

Date: 23 May 2024
Orbit: 750 x 778 km, 74.0° (Epoch: 21 June)

Event Time Altitude Azimuth Distance (km) Brightness Sun altitude
Exits shadow 00:48:46 16° 221° (SW) 1,948 5.5 -12.1°
Maximum altitude 00:53:00 63° 300° (WNW) 870 4.3 -11.8°
Drops below altitude 10° 00:58:17 10° 22° (NNE) 2,340 8.1 -11.5°
Sets 01:00:42 0° 26° (NNE) 3,269 9.5 -11.3°
